Waco Regional Airport
KACT : now visible

Airfield :











YOU CAN JOIN US ON...

 
LOGIN :

Register | Disclaimer

   EN    FR    IT 

 









Legend :    VFR   Marginal VFR   IFR   Intensive IFR   Very Intensive IFR
Visi :
Ceiling :
>= 8 km
>= 3000ft
5 to 8 km
1000 to 3000 ft
1500m to 5 km
500 to 1000 ft
800 to 1500m
200 to 500 ft
< 800m
< 200 ft
Symbols :   Thunderstorms  Fog  Heavy snow  Heavy precipitations  Wind > 20 kt






- Airport Elevation : 516 ft
- IATA code : ACT


KACT - Waco Regional

CURRENT METAR :
  • 090051Z AUTO 14012KT 10SM CLR 34/18 A3001 RMK AO2 SLP152 T03440178

EXPIRED METARs :
  • 082351Z 16010KT 10SM CLR 36/16 A3000 RMK AO2 SLP151 T03610161 10372 20344 56009
  • 082251Z 18010KT 10SM CLR 37/17 A3001 RMK AO2 SLP153 T03670167

TAF KACT
Valid from the 09 at 00:00 until the 10 at 00:00 UTC


082331Z 0900/0924 17011KT P6SM FEW250
KZFW FIR / North America



MET'MAP, your aeronautical weather chart ! - Copyright ORBIFLY December 2007 - Disclaimer

ORBIFLY MET'MAP TEAM :

Programming & Development : Alexandra Zaïnal
Concept & original design : Baudouin d'Aumeries
Assistance for programming : Marc-Olivier Méhu
Technical & hardware support : Manuel Goepfert

Contact : metmap@orbifly.com




SOURCES & CREDITS :

   NOAA       Earth
Advisory